Погода в Раздолье

Россия / Иркутская область     52°26′45″N   103°11′53″E
темп.,
°C
ветер,
м/с
пор.,
м/с
влажн.,
%
обл.,
%
осадки,
мм/ч
давл.,
гПа
погр.,
м
5 августа, чт
чт523:00+16юз21812 0.0 100712
02:00+16юз118328 0.0 100617
05:00+14юз119278 0.0 100611
08:00+18юз017380 0.0 1006135
11:00+25всв115382 0.0 1004652
14:00+28всв22418 0.0 10021584
17:00+28св22398 0.0 10011899
20:00+22св1169100 0.0 100211
6 августа, пт
пт623:00+18юз3884100 0.4 1003185
02:00+14сз1192100 0.4 100211
05:00+13юз1195100 0.0 100212
08:00+17зсз12795 0.0 1002193
11:00+23ссз2257100 0.0 1000855
14:00+25ссз225099 0.0 9991365
17:00+26ссз2248100 0.0 9981732
20:00+18сз4108786 1.1 999321
7 августа, сб
сб723:00+16сз41094100 0.6 1000411
02:00+16зсз41190100 0.6 1000378
05:00+16зсз41181100 0.0 1000455
08:00+16зсз4107990 0.0 1002534
11:00+21сз585550 0.1 10021373
14:00+24ссз5742100 0.3 10022442
17:00+19сз5106690 0.4 1004612
20:00+17зсз4118311 1.4 1006415
8 августа, вс
вс823:00+15зсз4139217 0.3 1007404
02:00+13зсз513944 0.4 1009574
05:00+13зсз514922 0.0 1010714
08:00+16сз5127214 0.0 1011788
11:00+20сз485444 0.1 10111252
14:00+23ссз3739100 0.2 10092759
17:00+23зсз364292 0.0 10091630
20:00+19с1169100 0.0 101025
9 августа, пн
пн923:00+14ссв017795 0.0 101111
02:00+12юз118627 0.0 101210
05:00+11ююз119056 0.0 101210
08:00+16ююз116844 0.0 1012137
11:00+22вюв114867 0.0 1011814
14:00+25всв123592 0.0 10102619
17:00+24юв324278 0.0 10101606
20:00+18ююз227155 0.0 101123